TimeCST,TemperatureF,Dew PointF,Humidity,Sea Level PressureIn,VisibilityMPH,Wind Direction,Wind SpeedMPH,Gust SpeedMPH,PrecipitationIn,Events,Conditions,WindDirDegrees,DateUTC
12:15 AM,30.6,14.7,52,29.97,10.0,Calm,Calm,-,N/A,,Clear,0,2012-11-25 06:15:00
12:35 AM,29.3,15.3,56,29.97,10.0,Calm,Calm,-,N/A,,Clear,0,2012-11-25 06:35:00
12:55 AM,29.7,15.3,55,29.97,10.0,Calm,Calm,-,N/A,,Clear,0,2012-11-25 06:55:00
1:15 AM,28.9,15.6,58,29.96,10.0,Calm,Calm,-,N/A,,Clear,0,2012-11-25 07:15:00
1:35 AM,29.3,15.6,57,29.96,10.0,Calm,Calm,-,N/A,,Clear,0,2012-11-25 07:35:00
1:55 AM,26.6,15.4,63,29.95,10.0,Calm,Calm,-,N/A,,Clear,0,2012-11-25 07:55:00
2:15 AM,30.4,17.6,59,29.95,10.0,Calm,Calm,-,N/A,,Clear,0,2012-11-25 08:15:00
2:35 AM,29.8,17.6,60,29.95,10.0,Calm,Calm,-,N/A,,Clear,0,2012-11-25 08:35:00
2:55 AM,30.9,18.3,60,29.95,10.0,Calm,Calm,-,N/A,,Scattered Clouds,0,2012-11-25 08:55:00
3:15 AM,30.6,18.9,62,29.95,10.0,SE,3.5,-,N/A,,Mostly Cloudy,140,2012-11-25 09:15:00
3:35 AM,32.0,18.5,58,29.94,10.0,South,5.8,-,N/A,,Scattered Clouds,180,2012-11-25 09:35:00
3:55 AM,31.1,18.9,61,29.94,10.0,SSW,4.6,-,N/A,,Clear,200,2012-11-25 09:55:00
4:15 AM,31.6,19.2,60,29.94,10.0,South,4.6,-,N/A,,Clear,170,2012-11-25 10:15:00
4:35 AM,31.1,19.4,62,29.93,10.0,South,4.6,-,N/A,,Clear,170,2012-11-25 10:35:00
4:55 AM,31.8,19.4,60,29.93,10.0,South,5.8,-,N/A,,Clear,190,2012-11-25 10:55:00
5:15 AM,32.0,20.3,62,29.92,10.0,South,6.9,-,N/A,,Clear,190,2012-11-25 11:15:00
5:35 AM,32.5,20.7,62,29.93,10.0,Calm,Calm,-,N/A,,Clear,0,2012-11-25 11:35:00
5:55 AM,32.0,20.8,63,29.93,10.0,SSE,3.5,-,N/A,,Clear,150,2012-11-25 11:55:00
6:15 AM,34.7,22.3,61,29.92,10.0,South,4.6,-,N/A,,Clear,170,2012-11-25 12:15:00
6:35 AM,35.2,22.6,60,29.92,10.0,SSE,8.1,-,N/A,,Clear,160,2012-11-25 12:35:00
6:55 AM,35.1,23.2,62,29.92,10.0,SSE,10.4,-,N/A,,Clear,160,2012-11-25 12:55:00
7:15 AM,35.4,23.5,62,29.92,10.0,South,9.2,-,N/A,,Clear,180,2012-11-25 13:15:00
7:35 AM,34.7,23.0,62,29.92,10.0,South,6.9,-,N/A,,Clear,170,2012-11-25 13:35:00
7:55 AM,35.6,23.5,62,29.92,10.0,South,6.9,-,N/A,,Clear,170,2012-11-25 13:55:00
8:15 AM,35.6,23.7,62,29.92,10.0,SSE,8.1,-,N/A,,Clear,160,2012-11-25 14:15:00
8:35 AM,34.7,23.4,63,29.92,10.0,South,8.1,-,N/A,,Clear,170,2012-11-25 14:35:00
8:55 AM,36.0,23.2,60,29.92,10.0,South,9.2,-,N/A,,Clear,170,2012-11-25 14:55:00
9:15 AM,37.6,23.5,57,29.92,10.0,South,12.7,-,N/A,,Clear,170,2012-11-25 15:15:00
9:35 AM,38.8,23.9,55,29.92,10.0,South,13.8,-,N/A,,Clear,170,2012-11-25 15:35:00
9:55 AM,40.3,24.8,54,29.92,10.0,South,17.3,-,N/A,,Clear,170,2012-11-25 15:55:00
10:15 AM,41.2,25.7,54,29.91,10.0,South,17.3,21.9,N/A,,Clear,170,2012-11-25 16:15:00
10:35 AM,43.3,25.3,49,29.90,10.0,SSE,21.9,26.5,N/A,,Clear,160,2012-11-25 16:35:00
10:55 AM,46.9,25.3,43,29.90,10.0,South,21.9,26.5,N/A,,Clear,170,2012-11-25 16:55:00
11:15 AM,46.6,24.3,42,29.89,10.0,SSE,19.6,-,N/A,,Clear,160,2012-11-25 17:15:00
11:35 AM,46.8,23.5,40,29.88,10.0,South,17.3,-,N/A,,Clear,170,2012-11-25 17:35:00
11:55 AM,48.2,23.5,38,29.87,10.0,SSE,18.4,-,N/A,,Clear,160,2012-11-25 17:55:00
12:15 PM,49.1,23.9,37,29.86,10.0,South,18.4,-,N/A,,Clear,170,2012-11-25 18:15:00
12:35 PM,51.1,23.5,34,29.84,10.0,South,17.3,21.9,N/A,,Clear,180,2012-11-25 18:35:00
12:55 PM,51.6,23.2,33,29.84,10.0,South,15.0,20.7,N/A,,Clear,180,2012-11-25 18:55:00
1:15 PM,52.0,23.2,33,29.83,10.0,South,12.7,-,N/A,,Clear,180,2012-11-25 19:15:00
1:35 PM,52.0,23.9,34,29.81,10.0,South,15.0,-,N/A,,Clear,170,2012-11-25 19:35:00
1:55 PM,52.7,23.9,33,29.80,10.0,South,18.4,-,N/A,,Clear,180,2012-11-25 19:55:00
2:15 PM,54.3,23.5,30,29.79,10.0,South,18.4,24.2,N/A,,Clear,170,2012-11-25 20:15:00
2:35 PM,55.8,23.2,28,29.78,10.0,South,17.3,23.0,N/A,,Clear,170,2012-11-25 20:35:00
2:55 PM,57.2,18.7,22,29.78,10.0,South,18.4,21.9,N/A,,Clear,170,2012-11-25 20:55:00
3:15 PM,56.8,19.8,24,29.79,10.0,South,13.8,-,N/A,,Clear,190,2012-11-25 21:15:00
3:35 PM,56.5,18.5,23,29.80,10.0,SSW,13.8,-,N/A,,Clear,210,2012-11-25 21:35:00
3:55 PM,53.8,19.4,26,29.81,10.0,South,3.5,-,N/A,,Clear,190,2012-11-25 21:55:00
4:15 PM,54.3,16.9,23,29.82,10.0,WNW,17.3,24.2,N/A,,Scattered Clouds,300,2012-11-25 22:15:00
4:35 PM,53.6,16.0,23,29.84,10.0,NNW,13.8,-,N/A,,Mostly Cloudy,330,2012-11-25 22:35:00
4:55 PM,51.8,18.0,26,29.85,10.0,NNW,10.4,-,N/A,,Overcast,340,2012-11-25 22:55:00
5:15 PM,50.7,19.8,30,29.85,10.0,NW,10.4,-,N/A,,Overcast,320,2012-11-25 23:15:00
5:35 PM,49.6,21.6,33,29.86,10.0,NW,12.7,-,N/A,,Overcast,320,2012-11-25 23:35:00
5:55 PM,48.6,21.6,35,29.86,10.0,North,6.9,-,N/A,,Overcast,350,2012-11-25 23:55:00
6:15 PM,47.3,22.1,37,29.87,10.0,Calm,Calm,-,N/A,,Overcast,0,2012-11-26 00:15:00
6:35 PM,48.4,22.6,36,29.87,10.0,North,8.1,-,N/A,,Overcast,10,2012-11-26 00:35:00
6:55 PM,46.4,23.0,40,29.88,10.0,NNE,4.6,-,N/A,,Overcast,30,2012-11-26 00:55:00
7:15 PM,47.1,24.8,42,29.89,10.0,NNE,3.5,-,N/A,,Mostly Cloudy,30,2012-11-26 01:15:00
7:35 PM,47.5,24.4,41,29.89,10.0,NNW,6.9,-,N/A,,Scattered Clouds,330,2012-11-26 01:35:00
7:55 PM,46.8,24.3,41,29.89,10.0,NNW,3.5,-,N/A,,Mostly Cloudy,330,2012-11-26 01:55:00
8:15 PM,45.7,24.8,44,29.89,10.0,NNW,5.8,-,N/A,,Clear,330,2012-11-26 02:15:00
8:35 PM,45.1,24.8,45,29.89,10.0,NW,9.2,-,N/A,,Clear,320,2012-11-26 02:35:00
8:55 PM,43.3,25.0,48,29.90,10.0,NW,5.8,-,N/A,,Clear,310,2012-11-26 02:55:00
9:15 PM,40.1,24.8,54,29.91,10.0,NW,5.8,-,N/A,,Clear,320,2012-11-26 03:15:00
9:35 PM,36.0,24.6,63,29.92,10.0,NW,6.9,-,N/A,,Clear,310,2012-11-26 03:35:00
9:55 PM,36.3,26.6,68,29.93,10.0,NNW,11.5,-,N/A,,Scattered Clouds,330,2012-11-26 03:55:00
10:15 PM,35.6,27.1,71,29.93,10.0,NW,9.2,-,N/A,,Mostly Cloudy,320,2012-11-26 04:15:00
10:35 PM,35.1,27.1,73,29.94,10.0,NNW,9.2,-,N/A,,Overcast,330,2012-11-26 04:35:00
10:55 PM,34.7,27.1,74,29.96,10.0,ESE,4.6,-,N/A,,Overcast,120,2012-11-26 04:55:00
11:15 PM,34.9,27.0,73,29.96,10.0,Calm,Calm,-,N/A,,Overcast,0,2012-11-26 05:15:00
11:35 PM,34.7,27.1,74,29.97,10.0,Calm,Calm,-,N/A,,Overcast,0,2012-11-26 05:35:00
11:55 PM,33.3,26.8,77,29.98,10.0,Calm,Calm,-,N/A,,Overcast,0,2012-11-26 05:55:00